Home > Time Zones > World Clock > Weather > Norway > Moss > Past weeks

Flag for Norway Weather past 2 weeks in Moss, Norway

Now
70 °F

Sunny.


Feels Like: 70 °F
Forecast: 56 / 69 °F
Wind: 12 mph from Southwest

Location: Rygge

Current Time: Jun 30, 2015 at 7:30:26 PM

Latest Report: Jun 30, 2015 at 6:50 PM


Visibility: 10 mi

Pressure: 30.12 "Hg

Humidity: 50%

Dew point: 50 °F

Location of MossLocation

Historic Weather in Moss — Graph

°F

Moss temperature yesterday

Maximum temperature yesterday: 64 °F (at 12:50 PM)
Minimum temperature yesterday: 55 °F (at 11:20 PM)
Average temperature yesterday: 60 °F

Past Weeks' High & Low Weather Summary

 TemperatureHumidityPressure
High73 °F (Jun 30, 3:50 PM)100% (Jun 17, 1:50 PM)30.12 "Hg (Jun 17, 1:50 PM)
Low46 °F (Jun 27, 4:20 AM)28% (Jun 16, 4:50 PM)29.59 "Hg (Jun 18, 5:50 AM)
Average58 °F73%29.86 "Hg
* Reported Jun 15 6:20 PM — Jun 30 6:20 PM, Moss, Weather by CustomWeather, © 2015

Note: Actual official high and low records may vary slightly from our data, if they occured in-between our weather recording intervals... More about our weather records

Advertising

Moss weather history for previous 24 hours

 ConditionsComfort  
Time TempWeatherWind HumidityBarometerVisibility
6:20 PM
Tue, Jun 30
70 °FSunny.12 mph53%30.12 "Hg10 mi
5:50 PM73 °FPassing clouds.5 mph38%30.09 "HgN/A
4:50 PM73 °FPassing clouds.6 mph38%30.12 "HgN/A
4:20 PM73 °FPassing clouds.7 mph41%30.12 "HgN/A
3:50 PM73 °FPassing clouds.7 mph38%30.12 "HgN/A
3:20 PM72 °FPassing clouds.8 mph47%30.12 "HgN/A
2:50 PM72 °FPassing clouds.10 mph47%30.12 "HgN/A
2:20 PM72 °FPassing clouds.8 mph47%30.12 "HgN/A
1:50 PM72 °FPassing clouds.8 mph44%30.09 "HgN/A
1:20 PM70 °FPassing clouds.6 mph50%30.09 "HgN/A
12:50 PM70 °FPassing clouds.5 mph50%30.09 "HgN/A
12:20 PM68 °FPassing clouds.7 mph53%30.09 "HgN/A
11:50 AM66 °FPassing clouds.12 mph56%30.09 "HgN/A
11:20 AM66 °FPassing clouds.9 mph56%30.09 "HgN/A
10:50 AM66 °FPassing clouds.12 mph56%30.09 "HgN/A
10:20 AM64 °FPassing clouds.12 mph64%30.07 "HgN/A
9:50 AM64 °FPassing clouds.10 mph64%30.07 "HgN/A
9:20 AM64 °FPassing clouds.9 mph64%30.07 "HgN/A
8:50 AM63 °FSunny.12 mph68%30.07 "Hg10 mi
8:20 AM61 °FSunny.13 mph72%30.04 "Hg10 mi
7:50 AM61 °FPassing clouds.8 mph72%30.04 "HgN/A
7:20 AM59 °FPassing clouds.8 mph72%30.04 "HgN/A
6:50 AM57 °FPassing clouds.8 mph72%30.01 "HgN/A
6:20 AM57 °FPassing clouds.8 mph72%30.01 "HgN/A
5:50 AM57 °FCool.7 mph67%30.01 "HgN/A
4:50 AM55 °FPassing clouds.5 mph77%30.01 "HgN/A
4:20 AM55 °FPassing clouds.6 mph72%29.98 "HgN/A
3:50 AM54 °FCool.6 mph82%29.98 "HgN/A
3:20 AM54 °FCool.6 mph88%29.98 "HgN/A
2:50 AM54 °FLight fog.5 mph100%29.98 "Hg0 mi
2:20 AM52 °FLight fog.2 mph100%29.95 "Hg0 mi
1:50 AM54 °FLight fog.No wind94%29.95 "Hg0 mi
1:20 AM55 °FFog.No wind94%29.95 "Hg0 mi
12:50 AM55 °FFog.1 mph100%29.95 "Hg1 mi
12:20 AM55 °FMostly cloudy.2 mph94%29.95 "Hg1 mi
11:50 PM
Mon, Jun 29
55 °FCool.No wind100%29.95 "Hg0 mi
11:20 PM55 °FFog.2 mph100%29.95 "HgN/A
10:50 PM57 °FSunny.2 mph94%29.95 "Hg10 mi
10:20 PM57 °FSunny.5 mph94%29.95 "Hg10 mi
9:50 PM59 °FBroken clouds.8 mph94%29.92 "HgN/A
9:20 PM59 °FPartly sunny.8 mph94%29.92 "HgN/A
8:50 PM59 °FScattered showers. Broken clouds.8 mph94%29.92 "HgN/A
8:20 PM59 °FScattered showers. Broken clouds.12 mph94%29.92 "Hg4 mi
7:50 PM59 °FLight rain. Partly sunny.10 mph94%29.92 "HgN/A
7:20 PM61 °FPartly sunny.10 mph88%29.92 "HgN/A
Weather by CustomWeather, © 2015

See weather overviewHow to use our weather pages